Weather History for McCall, ID

Change the Weather History Date:

Sunday, February 23, 2014

  Actual Average Record
Temperature  
Mean Temperature 31 °F 23 °F  
Max Temperature 36 °F 35 °F 56 °F (1995)
Min Temperature 25 °F 12 °F -5 °F (1975)
Degree Days  
Heating Degree Days 34 42  
Month to date heating degree days 946 996  
Since 1 July heating degree days 5838 6470  
Cooling Degree Days 0 0  
Month to date cooling degree days 0 0  
Year to date cooling degree days 0 0  
Moisture  
Dew Point 25 °F    
Average Humidity 81    
Maximum Humidity 92    
Minimum Humidity 70    
Precipitation  
Precipitation 0.03 in 0.07 in 0.70 in (1986)
Month to date precipitation 2.75 1.44  
Year to date precipitation 4.41 3.17  
Sea Level Pressure  
Sea Level Pressure 29.98 in    
Wind  
Wind Speed 4 mph (SSE)    
Max Wind Speed 15 mph    
Max Gust Speed 18 mph    
Visibility 8 miles    
Events Snow    
T = Trace of Precipitation, MM = Missing Value Source: NWS Daily Summary

Daily Weather History Graph

Daily Weather History Graph

Search for Another Location

Airport:

Trip Planner

Search our weather history database for the weather conditions in past years. The results will help you decide how hot, cold, wet, or windy it might be!

Date:

Astronomy

Feb. 23, 2014 Rise Set
Actual Time 7:32 AM MST 6:23 PM MST
Civil Twilight 7:02 AM MST 6:53 PM MST
Nautical Twilight 6:28 AM MST 7:27 PM MST
Astronomical Twilight 5:54 AM MST 8:01 PM MST
Moon 2:42 AM MST (2/23) 12:22 PM MST (2/23)
Length of Visible Light 11h 51m
Length of Day
10h 51m
Last Quarter, 38% of the Moon is Illuminated
Feb 23
Last Quarter
Mar 1
New
Mar 8
First Quarter
Mar 16
Full
Mar 23
Last Quarter

Hourly Weather History & Observations

Time (MST) Temp. Windchill Dew Point Humidity Pressure Visibility Wind Dir Wind Speed Gust Speed Precip Events Conditions
12:35 AM 26.1 °F - 23.0 °F 88% 29.91 in 3.0 mi Calm Calm - 0.01 in Snow Light Snow
12:44 AM 26.1 °F - 23.0 °F 88% 29.91 in 2.5 mi Calm Calm - 0.01 in Snow Light Snow
12:51 AM 26.1 °F - 23.0 °F 88% 30.01 in 2.0 mi Calm Calm - 0.02 in Snow Light Snow
1:02 AM 26.1 °F - 23.0 °F 88% 29.91 in 3.0 mi Calm Calm - 0.00 in Snow Light Snow
1:51 AM 25.0 °F - 23.0 °F 92% 30.01 in 4.0 mi Calm Calm - 0.00 in Snow Light Snow
2:03 AM 26.1 °F - 23.0 °F 88% 29.91 in 5.0 mi Calm Calm - 0.00 in Snow Light Snow
2:15 AM 26.1 °F - 23.0 °F 88% 29.91 in 7.0 mi Calm Calm - 0.00 in Snow Light Snow
2:51 AM 26.1 °F - 21.9 °F 84% 30.01 in 7.0 mi Calm Calm - 0.00 in   Overcast
3:51 AM 26.1 °F 20.5 °F 23.0 °F 88% 30.00 in 9.0 mi NW 4.6 mph - 0.00 in   Overcast
4:51 AM 26.1 °F - 23.0 °F 88% 30.00 in 10.0 mi Calm Calm - 0.00 in   Overcast
5:51 AM 27.0 °F - 24.1 °F 89% 30.01 in 10.0 mi Calm Calm - N/A   Overcast
6:51 AM 26.1 °F 21.9 °F 24.1 °F 92% 30.02 in 10.0 mi North 3.5 mph - N/A   Overcast
7:28 AM 27.0 °F - 23.0 °F 85% 29.92 in 10.0 mi Calm Calm - N/A   Overcast
7:51 AM 27.0 °F 23.0 °F 24.1 °F 89% 30.02 in 8.0 mi NNW 3.5 mph - N/A   Overcast
8:47 AM 28.4 °F - 24.8 °F 86% 29.94 in 8.0 mi Calm Calm - N/A   Overcast
8:51 AM 28.0 °F - 25.0 °F 88% 30.04 in 7.0 mi Calm Calm - N/A   Overcast
9:28 AM 30.0 °F 25.2 °F 26.1 °F 85% 29.94 in 10.0 mi NNW 4.6 mph - 0.00 in   Overcast
9:51 AM 30.0 °F 26.5 °F 26.1 °F 85% 30.04 in 10.0 mi NNW 3.5 mph - 0.00 in   Overcast
10:10 AM 30.9 °F - 27.0 °F 85% 29.94 in 10.0 mi Calm Calm - N/A   Overcast
10:27 AM 33.1 °F 25.5 °F 27.0 °F 78% 29.94 in 10.0 mi SSE 9.2 mph - N/A   Overcast
10:51 AM 33.1 °F 26.9 °F 27.0 °F 78% 30.03 in 10.0 mi SSE 6.9 mph - N/A   Overcast
11:51 AM 34.0 °F 28.0 °F 28.0 °F 79% 30.03 in 10.0 mi South 6.9 mph - N/A   Overcast
12:51 PM 34.0 °F 28.8 °F 28.0 °F 79% 30.01 in 10.0 mi South 5.8 mph - N/A   Overcast
1:51 PM 36.0 °F 28.5 °F 27.0 °F 70% 30.00 in 10.0 mi SSE 10.4 mph - N/A   Overcast
2:51 PM 36.0 °F 28.5 °F 26.1 °F 67% 29.99 in 10.0 mi SSE 10.4 mph - N/A   Overcast
3:51 PM 36.0 °F 28.5 °F 26.1 °F 67% 29.99 in 10.0 mi SSE 10.4 mph - N/A   Overcast
4:51 PM 36.0 °F 28.5 °F 26.1 °F 67% 29.98 in 10.0 mi SSE 10.4 mph - N/A   Mostly Cloudy
5:51 PM 36.0 °F 29.6 °F 26.1 °F 67% 29.97 in 10.0 mi SSE 8.1 mph - N/A   Overcast
6:51 PM 35.1 °F 31.0 °F 26.1 °F 70% 29.98 in 10.0 mi SSE 4.6 mph - N/A   Overcast
7:51 PM 35.1 °F - 26.1 °F 70% 29.97 in 10.0 mi Calm Calm - N/A   Overcast
8:51 PM 35.1 °F 31.0 °F 26.1 °F 70% 29.98 in 10.0 mi South 4.6 mph - N/A   Overcast
9:51 PM 35.1 °F - 28.0 °F 76% 29.98 in 8.0 mi Calm Calm - 0.01 in Snow Light Snow
10:51 PM 33.1 °F - 28.0 °F 82% 29.99 in 10.0 mi Calm Calm - 0.00 in   Overcast
11:51 PM 32.0 °F - 28.0 °F 85% 29.99 in 10.0 mi Calm Calm - 0.00 in   Overcast